"Pseudo-MPEC" for C1HG7M2

Created 2019 Dec 3 23:07:16 UT using Find_Orb

Click here for an explanation of pseudo-MPECs

 
 Astrometry: 
     C1HG7M2  C2019 12 02.31468 05 51 21.46 +34 03 45.8    ~C28M 19.1 GVNEOCPG96
     C1HG7M2  C2019 12 02.31993 05 51 19.11 +34 04 34.6    ~C28M 19.5 GVNEOCPG96
     C1HG7M2  C2019 12 02.32518 05 51 16.75 +34 05 23.2    ~C28M 19.2 GVNEOCPG96
     C1HG7M2  C2019 12 02.33045 05 51 14.42 +34 06 11.3    ~C28M 19.2 GVNEOCPG96
     C1HG7M2  C2019 12 02.41311 05 50 38.26 +34 18 13.4    ~C2A7 19.1 GVNEOCPI52
     C1HG7M2  C2019 12 02.41353 05 50 38.14 +34 18 16.7    ~C2A7 19.2 GVNEOCPI52
     C1HG7M2  C2019 12 02.41394 05 50 37.95 +34 18 20.4    ~C2A7 19.1 GVNEOCPI52
     C1HG7M2  C2019 12 02.41436 05 50 37.78 +34 18 23.5    ~C2A7 18.8 GVNEOCPI52
     C1HG7M2  C2019 12 02.47733 05 50 12.18 +34 26 51.6    ~C2Bq 19.3 GVNEOCPI52
     C1HG7M2  C2019 12 02.47775 05 50 12.00 +34 26 55.1    ~C2Bq 19.7 GVNEOCPI52
     C1HG7M2  C2019 12 02.47817 05 50 11.84 +34 26 58.5    ~C2Bq 19.4 GVNEOCPI52
     C1HG7M2  C2019 12 02.47858 05 50 11.68 +34 27 01.5    ~C2Bq 19.3 GVNEOCPI52
     C1HG7M2 KC2019 12 02sOKG]?6FR'!)k7:++f^Fm)\P!_974^K]Nq5QRk4C(S8g^$^vsA3#K88
     C1HG7M2 KC2019 12 02CQb\Bw[^/NM:OJ!Astrometry(B@@H$puF]xih;K1lKFnc/BkJ#cK88
     C1HG7M2 KC2019 12 02y'd[Ca!=c%g_KK7n9R?$DE$mb4iS8lq7s[rvM3`R!yXL6L?CFDAEK88
     C1HG7M2 KC2019 12 024-6$;NJ2?DGk:xN^K)]]UMctp/rl.Op?^eHcQgax3Uv+)4VfKmAyK63
     C1HG7M2 KC2019 12 02WpI@BoOqPE7h0_Qa899njEQXU*I9]/`F,VO#,tnt^Sy4rmMf7LroK63
     C1HG7M2 KC2019 12 02(jyQ)\1mw1ySaV95KgNXmMlftt,1F$'(HYR=Dy:VxG=.:,3'ZFObK63
     C1HG7M2 KC2019 12 038;\f!n3ZO;(/O4M3t)eAt[--=ASl)Faf2b4yB=o%Lx9SKMMU8I/fL01
     C1HG7M2 KC2019 12 03^pt!8'GA'.anquGmlr?:2Lf_yredacted;uQ^aUlmMdhUrP#C%J7L01
     C1HG7M2  C2019 12 03.21848 05 47 18.02 +35 54 25.3    ~C35b 19.4 GVNEOCPI52
     C1HG7M2  C2019 12 03.21890 05 47 17.91 +35 54 28.0    ~C35b 19.4 GVNEOCPI52
     C1HG7M2  C2019 12 03.21931 05 47 17.78 +35 54 31.0    ~C35b 19.7 GVNEOCPI52
     C1HG7M2  C2019 12 03.21973 05 47 17.66 +35 54 33.1    ~C35b 19.5 GVNEOCPI52
     C1HG7M2 KC2019 12 03rAck5O=U4pP@clicks5^4D*P7W:%2g/i05n!a5eRJ:oZ)edI8SaLH36
     C1HG7M2 KC2019 12 03wk#hHqn5^WXolLpSahere5_fPTF3t062dw_;B*D3RYL/luVkcZ[IH36
     C1HG7M2 KC2019 12 03Fe#Fxw04dNeIj-?t+,eX51SkOyU/Z$/y[/w3@ewH*lk?@v%F;^\LH36
     C1HG7M2 KC2019 12 03k'j6e$nu#*^T=Xsn'#nsHgnEl::*Pgvfor2CfH.Eq]H!v#TP2[TZK88
     C1HG7M2 KC2019 12 03/!W!GqR](4H6hm-.sV#8lexplanationWLU4'2iO]+[_hcMH1dk%K88

Station data:
(G96) Mt. Lemmon Survey  (N32.442754 W110.788720)  US/Arizona.  Observers T.
   A. Pruyne, B. M. Africano, E. J. Christensen, G. A. Farneth, D. C. Fuls,
   A. R. Gibbs, A. D. Grauer, H. Gröller, J. A. Johnson, R. A. Kowalski, S.
   M. Larson, G. J. Leonard, D. Rankin, R. L. Seaman, F. C. Shelly. 1.5-m
   reflector + 10K CCD.
(H36) Sandlot Observatory, Scranton  (N38.797693 W95.706400)  US/Kansas.
   Observer G. Hug. 0.56-m reflector + CCD.
(I52) Steward Observatory, Mt. Lemmon Station  (N32.442547 W110.788920)
   US/Arizona.  Observers T. A. Pruyne, B. M. Africano, E. J. Christensen, G.
   A. Farneth, D. C. Fuls, A. R. Gibbs, A. D. Grauer, H. Gröller, J. A.
   Johnson, R. A. Kowalski, S. M. Larson, G. J. Leonard, D. Rankin, R. L.
   Seaman, F. C. Shelly. 1.0-m reflector + CCD.
(K63) G. Pascoli Observatory, Castelvecchio Pascoli  (N44.082410 E10.462000)
   Italy.
(K88) GINOP-KHK, Piszkéstető  (N47.917622 E19.893600)  Hungary.  Observer K.
   Sárneczky. 0.60-m Schmidt + CCD.
(L01) Višnjan Observatory, Tičan  (N45.290900 E13.749300)  Croatia.
   Observers K. Korlević, E. Pettarin. Measurer E. Pettarin. 1.0-m f/2.9
   reflector + CCD.

Orbital elements:  C1HG7M2
   Perihelion 2019 Oct 21.290093 +/- 0.0112 TT =  6:57:44 (JD 2458777.790093)
Epoch 2019 Dec  3.0 TT = JDT 2458820.5   Earth MOID: 0.0053   Ma: 0.0510
M  15.59401698 +/- 0.035            (J2000 ecliptic)          AutoNEOCP
n   0.36511474 +/- 0.000746         Peri.  303.06485 +/- 0.0019
a   1.93872614 +/- 0.00264          Node    67.85033 +/- 0.00048
e   0.5688151 +/- 0.000648          Incl.    8.31564 +/- 0.007
P   2.70/985.97d           H 25.8   G  0.15   U  7.9  
q 0.83594925 +/- 0.000119    Q 3.04150303 +/- 0.00541
From 29 observations 2019 Dec. 2-3 (37.4 hr); mean residual 0".28
Residuals in arcseconds: 
191202 G96  .45+  .21-    191202 I52  .38-  .10+    191203 I52  .07+  .08-    
191202 G96  .31+  .02-    191202 I52  .39-  .11-    191203 I52  .28+  .12-    
191202 G96  .03+  .24+    191202 K88  .01+  .08+    191203 I52  .20+  .21+    
191202 G96  .22+  .09+    191202 K88  .19-  .47+    191203 I52  .28+  .42-    
191202 I52  .58-  .19+    191202 K88  .09+  .01+    191203 H36  .21-  .14+    
191202 I52  .13+  .02-    191202 K63  .28+  .49-    191203 H36  .18-  .33-    
191202 I52  .07-  .26+    191202 K63  .52-  .43+    191203 H36  .12+  .22+    
191202 I52  .02+  .14-    191202 K63  .60-  .81-    191203 K88  .07-  .02+    
191202 I52  .19-  .24-    191203 L01  .33+  .25+    191203 K88  .01-  .05+    
191202 I52  .41-  .02-    191203 L01  .39+  .09+    

Ephemerides (geocentric):
Date (UTC) HH   RA              Dec         delta   r     elong  mag " sig PA
---- -- -- --  -------------   -----------  ------ ------ -----  --- ---- ---
2019 12 03 23  05 44 34.016   +36 58 43.42  .04498 1.0279 159.4 20.1 .090 122
2019 12 04 00  05 44 26.456   +37 01 48.83  .04531 1.0282 159.4 20.1 .091 121
2019 12 04 01  05 44 18.991   +37 04 51.43  .04565 1.0285 159.4 20.1 .092 121
2019 12 04 02  05 44 11.619   +37 07 51.29  .04598 1.0289 159.5 20.1 .093 120
2019 12 04 03  05 44 04.339   +37 10 48.46  .04631 1.0292 159.5 20.1 .094 120
2019 12 04 04  05 43 57.149   +37 13 43.01  .04665 1.0295 159.5 20.2 .095 120
2019 12 04 05  05 43 50.046   +37 16 34.98  .04698 1.0298 159.5 20.2 .096 119
2019 12 04 06  05 43 43.029   +37 19 24.44  .04731 1.0301 159.5 20.2 .097 119
2019 12 04 07  05 43 36.097   +37 22 11.42  .04765 1.0304 159.5 20.2 .098 118
2019 12 04 08  05 43 29.248   +37 24 55.99  .04798 1.0307 159.6 20.2 .099 118
2019 12 04 09  05 43 22.480   +37 27 38.20  .04832 1.0310 159.6 20.2 .099 117
2019 12 04 10  05 43 15.792   +37 30 18.08  .04865 1.0314 159.6 20.3 .100 117
2019 12 04 11  05 43 09.183   +37 32 55.69  .04898 1.0317 159.6 20.3 .101 116
2019 12 04 12  05 43 02.650   +37 35 31.08  .04932 1.0320 159.6 20.3 .102 116
2019 12 04 13  05 42 56.193   +37 38 04.28  .04965 1.0323 159.6 20.3 .102 115
2019 12 04 14  05 42 49.810   +37 40 35.34  .04999 1.0326 159.6 20.3 .103 115
2019 12 04 15  05 42 43.500   +37 43 04.30  .05032 1.0329 159.7 20.3 .104 115
2019 12 04 16  05 42 37.261   +37 45 31.21  .05066 1.0332 159.7 20.3 .104 114
2019 12 04 17  05 42 31.092   +37 47 56.10  .05099 1.0336 159.7 20.4 .105 114
2019 12 04 18  05 42 24.992   +37 50 19.01  .05132 1.0339 159.7 20.4 .105 113
2019 12 04 19  05 42 18.960   +37 52 39.98  .05166 1.0342 159.7 20.4 .106 113
2019 12 04 20  05 42 12.995   +37 54 59.05  .05199 1.0345 159.7 20.4 .106 112
2019 12 04 21  05 42 07.095   +37 57 16.24  .05233 1.0348 159.7 20.4 .107 112
2019 12 04 22  05 42 01.259   +37 59 31.61  .05266 1.0351 159.8 20.4 .107 112
2019 12 04 23  05 41 55.486   +38 01 45.17  .05300 1.0354 159.8 20.4 .108 111
2019 12 05 00  05 41 49.775   +38 03 56.97  .05333 1.0357 159.8 20.5 .108 111
2019 12 05 01  05 41 44.125   +38 06 07.04  .05367 1.0361 159.8 20.5 .109 110
2019 12 05 02  05 41 38.535   +38 08 15.40  .05400 1.0364 159.8 20.5 .109 110
2019 12 05 03  05 41 33.004   +38 10 22.10  .05434 1.0367 159.8 20.5 .109 110
2019 12 05 04  05 41 27.531   +38 12 27.15  .05468 1.0370 159.8 20.5 .110 109
2019 12 05 05  05 41 22.115   +38 14 30.59  .05501 1.0373 159.9 20.5 .110 109
2019 12 05 06  05 41 16.755   +38 16 32.45  .05535 1.0376 159.9 20.5 .110 108
2019 12 05 07  05 41 11.449   +38 18 32.75  .05568 1.0380 159.9 20.5 .111 108
2019 12 05 08  05 41 06.198   +38 20 31.53  .05602 1.0383 159.9 20.6 .111 107
2019 12 05 09  05 41 01.000   +38 22 28.80  .05635 1.0386 159.9 20.6 .111 107
2019 12 05 10  05 40 55.855   +38 24 24.60  .05669 1.0389 159.9 20.6 .112 107
2019 12 05 11  05 40 50.761   +38 26 18.95  .05702 1.0392 160.0 20.6 .112 106
2019 12 05 12  05 40 45.718   +38 28 11.87  .05736 1.0395 160.0 20.6 .112 106
2019 12 05 13  05 40 40.725   +38 30 03.40  .05770 1.0398 160.0 20.6 .113 105
2019 12 05 14  05 40 35.781   +38 31 53.54  .05803 1.0402 160.0 20.6 .113 105
2019 12 05 15  05 40 30.885   +38 33 42.34  .05837 1.0405 160.0 20.6 .113 105
2019 12 05 16  05 40 26.037   +38 35 29.80  .05870 1.0408 160.0 20.7 .113 104
2019 12 05 17  05 40 21.236   +38 37 15.95  .05904 1.0411 160.0 20.7 .114 104
2019 12 05 18  05 40 16.480   +38 39 00.82  .05938 1.0414 160.0 20.7 .114 103
2019 12 05 19  05 40 11.770   +38 40 44.42  .05971 1.0417 160.1 20.7 .114 103
2019 12 05 20  05 40 07.105   +38 42 26.78  .06005 1.0421 160.1 20.7 .114 103
2019 12 05 21  05 40 02.484   +38 44 07.91  .06039 1.0424 160.1 20.7 .114 102
2019 12 05 22  05 39 57.906   +38 45 47.83  .06072 1.0427 160.1 20.7 .115 102